Year,Month,Day,Hour,Minute,Value (Times are PST for temperature in C)
2012,08,13,00,00,18.70
2012,08,13,00,01,18.70
2012,08,13,00,02,18.70
2012,08,13,00,03,18.70
2012,08,13,00,04,18.70
2012,08,13,00,05,18.70
2012,08,13,00,06,18.70
2012,08,13,00,07,18.70
2012,08,13,00,08,18.70
2012,08,13,00,09,18.70
2012,08,13,00,10,18.70
2012,08,13,00,11,18.60
2012,08,13,00,12,18.50
2012,08,13,00,13,18.50
2012,08,13,00,14,18.40
2012,08,13,00,15,18.40
2012,08,13,00,16,18.30
2012,08,13,00,17,18.30
2012,08,13,00,18,18.20
2012,08,13,00,19,18.20
2012,08,13,00,20,18.20
2012,08,13,00,21,18.10
2012,08,13,00,22,18.10
2012,08,13,00,23,18.00
2012,08,13,00,24,17.90
2012,08,13,00,25,17.80
2012,08,13,00,26,17.70
2012,08,13,00,27,17.60
2012,08,13,00,28,17.50
2012,08,13,00,29,17.40
2012,08,13,00,30,17.30
2012,08,13,00,31,17.10
2012,08,13,00,32,17.00
2012,08,13,00,33,17.00
2012,08,13,00,34,16.90
2012,08,13,00,35,16.80
2012,08,13,00,36,16.80
2012,08,13,00,37,16.70
2012,08,13,00,38,16.70
2012,08,13,00,39,16.70
2012,08,13,00,40,16.70
2012,08,13,00,41,16.70
2012,08,13,00,42,16.70
2012,08,13,00,43,16.70
2012,08,13,00,44,16.70
2012,08,13,00,45,16.70
2012,08,13,00,46,16.70
2012,08,13,00,47,16.70
2012,08,13,00,48,16.70
2012,08,13,00,49,16.70
2012,08,13,00,50,16.70
2012,08,13,00,51,16.70
2012,08,13,00,52,16.70
2012,08,13,00,53,16.70
2012,08,13,00,54,16.60
2012,08,13,00,55,16.50
2012,08,13,00,56,16.40
2012,08,13,00,57,16.40
2012,08,13,00,58,16.30
2012,08,13,00,59,16.30
2012,08,13,01,00,16.20
2012,08,13,01,01,16.10
2012,08,13,01,02,16.10
2012,08,13,01,03,16.00
2012,08,13,01,04,15.90
2012,08,13,01,05,15.90
2012,08,13,01,06,15.80
2012,08,13,01,07,15.80
2012,08,13,01,08,15.70
2012,08,13,01,09,15.60
2012,08,13,01,10,15.60
2012,08,13,01,11,15.60
2012,08,13,01,12,15.60
2012,08,13,01,13,15.50
2012,08,13,01,14,15.50
2012,08,13,01,15,15.50
2012,08,13,01,16,15.50
2012,08,13,01,17,15.40
2012,08,13,01,18,15.40
2012,08,13,01,19,15.40
2012,08,13,01,20,15.40
2012,08,13,01,21,15.40
2012,08,13,01,22,15.30
2012,08,13,01,23,15.30
2012,08,13,01,24,15.30
2012,08,13,01,25,15.30
2012,08,13,01,26,15.30
2012,08,13,01,27,15.30
2012,08,13,01,28,15.30
2012,08,13,01,29,15.20
2012,08,13,01,30,15.20
2012,08,13,01,31,15.20
2012,08,13,01,32,15.20
2012,08,13,01,33,15.30
2012,08,13,01,34,15.30
2012,08,13,01,35,15.30
2012,08,13,01,36,15.30
2012,08,13,01,37,15.30
2012,08,13,01,38,15.30
2012,08,13,01,39,15.30
2012,08,13,01,40,15.30
2012,08,13,01,41,15.30
2012,08,13,01,42,15.30
2012,08,13,01,43,15.30
2012,08,13,01,44,15.30
2012,08,13,01,45,15.30
2012,08,13,01,46,15.30
2012,08,13,01,47,15.30
2012,08,13,01,48,15.30
2012,08,13,01,49,15.30
2012,08,13,01,50,15.30
2012,08,13,01,51,15.30
2012,08,13,01,52,15.40
2012,08,13,01,53,15.40
2012,08,13,01,54,15.40
2012,08,13,01,55,15.40
2012,08,13,01,56,15.40
2012,08,13,01,57,15.40
2012,08,13,01,58,15.50
2012,08,13,01,59,15.50
2012,08,13,02,00,15.50
2012,08,13,02,01,15.50
2012,08,13,02,02,15.60
2012,08,13,02,03,15.60
2012,08,13,02,04,15.60
2012,08,13,02,05,15.60
2012,08,13,02,06,15.70
2012,08,13,02,07,15.70
2012,08,13,02,08,15.70
2012,08,13,02,09,15.70
2012,08,13,02,10,15.80
2012,08,13,02,11,15.70
2012,08,13,02,12,15.70
2012,08,13,02,13,15.60
2012,08,13,02,14,15.60
2012,08,13,02,15,15.50
2012,08,13,02,16,15.40
2012,08,13,02,17,15.30
2012,08,13,02,18,15.30
2012,08,13,02,19,15.30
2012,08,13,02,20,15.20
2012,08,13,02,21,15.20
2012,08,13,02,22,15.20
2012,08,13,02,23,15.20
2012,08,13,02,24,15.10
2012,08,13,02,25,15.10
2012,08,13,02,26,15.10
2012,08,13,02,27,15.10
2012,08,13,02,28,15.10
2012,08,13,02,29,15.10
2012,08,13,02,30,15.10
2012,08,13,02,31,15.10
2012,08,13,02,32,15.10
2012,08,13,02,33,15.10
2012,08,13,02,34,15.10
2012,08,13,02,35,15.10
2012,08,13,02,36,15.00
2012,08,13,02,37,15.00
2012,08,13,02,38,15.00
2012,08,13,02,39,15.00
2012,08,13,02,40,15.00
2012,08,13,02,41,15.00
2012,08,13,02,42,14.90
2012,08,13,02,43,14.90
2012,08,13,02,44,14.90
2012,08,13,02,45,14.80
2012,08,13,02,46,14.80
2012,08,13,02,47,14.80
2012,08,13,02,48,14.80
2012,08,13,02,49,14.80
2012,08,13,02,50,14.80
2012,08,13,02,51,14.80
2012,08,13,02,52,14.70
2012,08,13,02,53,14.70
2012,08,13,02,54,14.70
2012,08,13,02,55,14.70
2012,08,13,02,56,14.70
2012,08,13,02,57,14.70
2012,08,13,02,58,14.70
2012,08,13,02,59,14.70
2012,08,13,03,00,14.70
2012,08,13,03,01,14.70
2012,08,13,03,02,14.70
2012,08,13,03,03,14.70
2012,08,13,03,04,14.70
2012,08,13,03,05,14.70
2012,08,13,03,06,14.70
2012,08,13,03,07,14.70
2012,08,13,03,08,14.70
2012,08,13,03,09,14.70
2012,08,13,03,10,14.70
2012,08,13,03,11,14.70
2012,08,13,03,12,14.70
2012,08,13,03,13,14.70
2012,08,13,03,14,14.70
2012,08,13,03,15,14.70
2012,08,13,03,16,14.70
2012,08,13,03,17,14.70
2012,08,13,03,18,14.70
2012,08,13,03,19,14.70
2012,08,13,03,20,14.70
2012,08,13,03,21,14.70
2012,08,13,03,22,14.70
2012,08,13,03,23,14.70
2012,08,13,03,24,14.70
2012,08,13,03,25,14.70
2012,08,13,03,26,14.70
2012,08,13,03,27,14.70
2012,08,13,03,28,14.70
2012,08,13,03,29,14.70
2012,08,13,03,30,14.70
2012,08,13,03,31,14.70
2012,08,13,03,32,14.70
2012,08,13,03,33,14.60
2012,08,13,03,34,14.60
2012,08,13,03,35,14.60
2012,08,13,03,36,14.60
2012,08,13,03,37,14.60
2012,08,13,03,38,14.50
2012,08,13,03,39,14.50
2012,08,13,03,40,14.50
2012,08,13,03,41,14.50
2012,08,13,03,42,14.40
2012,08,13,03,43,14.40
2012,08,13,03,44,14.40
2012,08,13,03,45,14.40
2012,08,13,03,46,14.40
2012,08,13,03,47,14.30
2012,08,13,03,48,14.30
2012,08,13,03,49,14.30
2012,08,13,03,50,14.30
2012,08,13,03,51,14.30
2012,08,13,03,52,14.30
2012,08,13,03,53,14.20
2012,08,13,03,54,14.20
2012,08,13,03,55,14.20
2012,08,13,03,56,14.20
2012,08,13,03,57,14.20
2012,08,13,03,58,14.20
2012,08,13,03,59,14.20
2012,08,13,04,00,14.20
2012,08,13,04,01,14.20
2012,08,13,04,02,14.20
2012,08,13,04,03,14.30
2012,08,13,04,04,14.30
2012,08,13,04,05,14.30
2012,08,13,04,06,14.30
2012,08,13,04,07,14.40
2012,08,13,04,08,14.30
2012,08,13,04,09,14.30
2012,08,13,04,10,14.30
2012,08,13,04,11,14.30
2012,08,13,04,12,14.20
2012,08,13,04,13,14.20
2012,08,13,04,14,14.20
2012,08,13,04,15,14.20
2012,08,13,04,16,14.20
2012,08,13,04,17,14.20
2012,08,13,04,18,14.20
2012,08,13,04,19,14.10
2012,08,13,04,20,14.10
2012,08,13,04,21,14.10
2012,08,13,04,22,14.10
2012,08,13,04,23,14.10
2012,08,13,04,24,14.10
2012,08,13,04,25,14.10
2012,08,13,04,26,14.10
2012,08,13,04,27,14.10
2012,08,13,04,28,14.00
2012,08,13,04,29,14.00
2012,08,13,04,30,14.00
2012,08,13,04,31,13.90
2012,08,13,04,32,14.00
2012,08,13,04,33,14.00
2012,08,13,04,34,14.00
2012,08,13,04,35,14.00
2012,08,13,04,36,14.00
2012,08,13,04,37,14.00
2012,08,13,04,38,13.90
2012,08,13,04,39,13.90
2012,08,13,04,40,13.90
2012,08,13,04,41,13.80
2012,08,13,04,42,13.80
2012,08,13,04,43,13.70
2012,08,13,04,44,13.70
2012,08,13,04,45,13.70
2012,08,13,04,46,13.70
2012,08,13,04,47,13.70
2012,08,13,04,48,13.60
2012,08,13,04,49,13.60
2012,08,13,04,50,13.60
2012,08,13,04,51,13.60
2012,08,13,04,52,13.60
2012,08,13,04,53,13.50
2012,08,13,04,54,13.50
2012,08,13,04,55,13.50
2012,08,13,04,56,13.50
2012,08,13,04,57,13.50
2012,08,13,04,58,13.50
2012,08,13,04,59,13.50
2012,08,13,05,00,13.50
2012,08,13,05,01,13.50
2012,08,13,05,02,13.50
2012,08,13,05,03,13.50
2012,08,13,05,04,13.50
2012,08,13,05,05,13.50
2012,08,13,05,06,13.50
2012,08,13,05,07,13.50
2012,08,13,05,08,13.50
2012,08,13,05,09,13.50
2012,08,13,05,10,13.50
2012,08,13,05,11,13.50
2012,08,13,05,12,13.50
2012,08,13,05,13,13.50
2012,08,13,05,14,13.50
2012,08,13,05,15,13.50
2012,08,13,05,16,13.50
2012,08,13,05,17,13.50
2012,08,13,05,18,13.50
2012,08,13,05,19,13.50
2012,08,13,05,20,13.60
2012,08,13,05,21,13.60
2012,08,13,05,22,13.60
2012,08,13,05,23,13.70
2012,08,13,05,24,13.70
2012,08,13,05,25,13.70
2012,08,13,05,26,13.70
2012,08,13,05,27,13.70
2012,08,13,05,28,13.70
2012,08,13,05,29,13.70
2012,08,13,05,30,13.70
2012,08,13,05,31,13.70
2012,08,13,05,32,13.70
2012,08,13,05,33,13.70
2012,08,13,05,34,13.70
2012,08,13,05,35,13.70
2012,08,13,05,36,13.70
2012,08,13,05,37,13.70
2012,08,13,05,38,13.70
2012,08,13,05,39,13.70
2012,08,13,05,40,13.60
2012,08,13,05,41,13.60
2012,08,13,05,42,13.60
2012,08,13,05,43,13.60
2012,08,13,05,44,13.60
2012,08,13,05,45,13.50
2012,08,13,05,46,13.50
2012,08,13,05,47,13.50
2012,08,13,05,48,13.50
2012,08,13,05,49,13.50
2012,08,13,05,50,13.60
2012,08,13,05,51,13.60
2012,08,13,05,52,13.60
2012,08,13,05,53,13.60
2012,08,13,05,54,13.50
2012,08,13,05,55,13.50
2012,08,13,05,56,13.50
2012,08,13,05,57,13.50
2012,08,13,05,58,13.50
2012,08,13,05,59,13.50
2012,08,13,06,00,13.50
2012,08,13,06,01,13.40
2012,08,13,06,02,13.40
2012,08,13,06,03,13.40
2012,08,13,06,04,13.40
2012,08,13,06,05,13.40
2012,08,13,06,06,13.30
2012,08,13,06,07,13.30
2012,08,13,06,08,13.30
2012,08,13,06,09,13.30
2012,08,13,06,10,13.30
2012,08,13,06,11,13.30
2012,08,13,06,12,13.30
2012,08,13,06,13,13.30
2012,08,13,06,14,13.30
2012,08,13,06,15,13.20
2012,08,13,06,16,13.20
2012,08,13,06,17,13.20
2012,08,13,06,18,13.20
2012,08,13,06,19,13.10
2012,08,13,06,20,13.10
2012,08,13,06,21,13.10
2012,08,13,06,22,13.10
2012,08,13,06,23,13.00
2012,08,13,06,24,13.00
2012,08,13,06,25,13.00
2012,08,13,06,26,13.00
2012,08,13,06,27,13.00
2012,08,13,06,28,13.00
2012,08,13,06,29,13.00
2012,08,13,06,30,13.00
2012,08,13,06,31,13.10
2012,08,13,06,32,13.10
2012,08,13,06,33,13.10
2012,08,13,06,34,13.00
2012,08,13,06,35,13.00
2012,08,13,06,36,13.00
2012,08,13,06,37,13.00
2012,08,13,06,38,13.00
2012,08,13,06,39,12.90
2012,08,13,06,40,12.90
2012,08,13,06,41,12.90
2012,08,13,06,42,12.90
2012,08,13,06,43,13.00
2012,08,13,06,44,13.00
2012,08,13,06,45,13.00
2012,08,13,06,46,13.00
2012,08,13,06,47,13.00
2012,08,13,06,48,13.00
2012,08,13,06,49,13.00
2012,08,13,06,50,13.00
2012,08,13,06,51,13.00
2012,08,13,06,52,13.10
2012,08,13,06,53,13.10
2012,08,13,06,54,13.10
2012,08,13,06,55,13.10
2012,08,13,06,56,13.20
2012,08,13,06,57,13.20
2012,08,13,06,58,13.20
2012,08,13,06,59,13.20
2012,08,13,07,00,13.20
2012,08,13,07,01,13.20
2012,08,13,07,02,13.20
2012,08,13,07,03,13.20
2012,08,13,07,04,13.20
2012,08,13,07,05,13.30
2012,08,13,07,06,13.30
2012,08,13,07,07,13.30
2012,08,13,07,08,13.30
2012,08,13,07,09,13.30
2012,08,13,07,10,13.30
2012,08,13,07,11,13.30
2012,08,13,07,12,13.30
2012,08,13,07,13,13.30
2012,08,13,07,14,13.30
2012,08,13,07,15,13.30
2012,08,13,07,16,13.30
2012,08,13,07,17,13.30
2012,08,13,07,18,13.30
2012,08,13,07,19,13.30
2012,08,13,07,20,13.30
2012,08,13,07,21,13.30
2012,08,13,07,22,13.30
2012,08,13,07,23,13.30
2012,08,13,07,24,13.30
2012,08,13,07,25,13.30
2012,08,13,07,26,13.30
2012,08,13,07,27,13.30
2012,08,13,07,28,13.30
2012,08,13,07,29,13.30
2012,08,13,07,30,13.30
2012,08,13,07,31,13.30
2012,08,13,07,32,13.40
2012,08,13,07,33,13.40
2012,08,13,07,34,13.40
2012,08,13,07,35,13.50
2012,08,13,07,36,13.50
2012,08,13,07,37,13.50
2012,08,13,07,38,13.60
2012,08,13,07,39,13.60
2012,08,13,07,40,13.70
2012,08,13,07,41,13.70
2012,08,13,07,42,13.70
2012,08,13,07,43,13.70
2012,08,13,07,44,13.80
2012,08,13,07,45,13.80
2012,08,13,07,46,13.90
2012,08,13,07,47,13.90
2012,08,13,07,48,13.90
2012,08,13,07,49,14.00
2012,08,13,07,50,14.00
2012,08,13,07,51,14.10
2012,08,13,07,52,14.10
2012,08,13,07,53,14.10
2012,08,13,07,54,14.20
2012,08,13,07,55,14.20
2012,08,13,07,56,14.20
2012,08,13,07,57,14.30
2012,08,13,07,58,14.30
2012,08,13,07,59,14.30
2012,08,13,08,00,14.40
2012,08,13,08,01,14.40
2012,08,13,08,02,14.40
2012,08,13,08,03,14.40
2012,08,13,08,04,14.40
2012,08,13,08,05,14.40
2012,08,13,08,06,14.40
2012,08,13,08,07,14.40
2012,08,13,08,08,14.40
2012,08,13,08,09,14.40
2012,08,13,08,10,14.40
2012,08,13,08,11,14.40
2012,08,13,08,12,14.40
2012,08,13,08,13,14.50
2012,08,13,08,14,14.50
2012,08,13,08,15,14.50
2012,08,13,08,16,14.60
2012,08,13,08,17,14.60
2012,08,13,08,18,14.50
2012,08,13,08,19,14.50
2012,08,13,08,20,14.50
2012,08,13,08,21,14.40
2012,08,13,08,22,14.40
2012,08,13,08,23,14.40
2012,08,13,08,24,14.50
2012,08,13,08,25,14.50
2012,08,13,08,26,14.50
2012,08,13,08,27,14.50
2012,08,13,08,28,14.50
2012,08,13,08,29,14.50
2012,08,13,08,30,14.60
2012,08,13,08,31,14.60
2012,08,13,08,32,14.60
2012,08,13,08,33,14.60
2012,08,13,08,34,14.60
2012,08,13,08,35,14.60
2012,08,13,08,36,14.60
2012,08,13,08,37,14.60
2012,08,13,08,38,14.60
2012,08,13,08,39,14.60
2012,08,13,08,40,14.70
2012,08,13,08,41,14.70
2012,08,13,08,42,14.70
2012,08,13,08,43,14.70
2012,08,13,08,44,14.80
2012,08,13,08,45,14.80
2012,08,13,08,46,14.80
2012,08,13,08,47,14.80
2012,08,13,08,48,14.90
2012,08,13,08,49,14.90
2012,08,13,08,50,15.00
2012,08,13,08,51,15.00
2012,08,13,08,52,15.10
2012,08,13,10,40,18.70
2012,08,13,10,41,18.70
2012,08,13,10,42,18.70
2012,08,13,10,43,18.70
2012,08,13,10,44,18.70
2012,08,13,10,45,18.80
2012,08,13,10,46,18.80
2012,08,13,10,47,18.80
2012,08,13,10,48,18.80
2012,08,13,10,49,18.80
2012,08,13,10,50,18.80
2012,08,13,10,51,18.80
2012,08,13,10,52,18.70
2012,08,13,10,53,18.70
2012,08,13,10,54,18.70
2012,08,13,10,55,18.70
2012,08,13,10,56,18.70
2012,08,13,10,57,18.70
2012,08,13,10,58,18.60
2012,08,13,10,59,18.60
2012,08,13,11,00,18.60
2012,08,13,11,01,18.60
2012,08,13,11,02,18.60
2012,08,13,11,03,18.60
2012,08,13,11,04,18.50
2012,08,13,11,05,18.50
2012,08,13,11,06,18.50
2012,08,13,11,07,18.50
2012,08,13,11,08,18.50
2012,08,13,11,09,18.50
2012,08,13,11,10,18.50
2012,08,13,11,11,18.60
2012,08,13,11,12,18.60
2012,08,13,11,13,18.70
2012,08,13,11,14,18.80
2012,08,13,11,15,18.80
2012,08,13,11,16,18.90
2012,08,13,11,17,18.90
2012,08,13,11,18,18.90
2012,08,13,11,19,18.90
2012,08,13,11,20,19.00
2012,08,13,11,21,19.10
2012,08,13,11,22,19.10
2012,08,13,11,23,19.10
2012,08,13,11,24,19.10
2012,08,13,11,25,19.10
2012,08,13,11,26,19.10
2012,08,13,11,27,19.00
2012,08,13,11,28,18.90
2012,08,13,11,29,18.90
2012,08,13,11,30,18.90
2012,08,13,11,31,18.90
2012,08,13,11,32,18.90
2012,08,13,11,33,18.90
2012,08,13,11,34,18.90
2012,08,13,11,35,18.90
2012,08,13,11,36,18.90
2012,08,13,11,37,18.90
2012,08,13,11,38,18.90
2012,08,13,11,39,18.90
2012,08,13,11,40,18.90
2012,08,13,11,41,18.90
2012,08,13,11,42,18.90
2012,08,13,11,43,19.00
2012,08,13,11,44,19.10
2012,08,13,11,45,19.10
2012,08,13,11,46,19.10
2012,08,13,11,47,19.10
2012,08,13,11,48,19.10
2012,08,13,11,49,19.10
2012,08,13,11,50,19.10
2012,08,13,11,51,19.10
2012,08,13,11,52,19.10
2012,08,13,11,53,19.20
2012,08,13,11,54,19.10
2012,08,13,11,55,19.10
2012,08,13,11,56,19.10
2012,08,13,11,57,19.10
2012,08,13,11,58,19.20
2012,08,13,11,59,19.30
2012,08,13,12,00,19.40
2012,08,13,12,01,19.40
2012,08,13,12,02,19.40
2012,08,13,12,03,19.40
2012,08,13,12,04,19.50
2012,08,13,12,05,19.50
2012,08,13,12,06,19.50
2012,08,13,12,07,19.40
2012,08,13,12,08,19.40
2012,08,13,12,09,19.30
2012,08,13,12,10,19.30
2012,08,13,12,11,19.20
2012,08,13,12,12,19.10
2012,08,13,12,13,19.10
2012,08,13,12,14,19.20
2012,08,13,12,15,19.30
2012,08,13,12,16,19.30
2012,08,13,12,17,19.30
2012,08,13,12,18,19.40
2012,08,13,12,19,19.40
2012,08,13,12,20,19.50
2012,08,13,12,21,19.60
2012,08,13,12,22,19.70
2012,08,13,12,23,19.60
2012,08,13,12,24,19.60
2012,08,13,12,25,19.70
2012,08,13,12,26,19.70
2012,08,13,12,27,19.70
2012,08,13,12,28,19.80
2012,08,13,12,29,19.80
2012,08,13,12,30,19.80
2012,08,13,12,31,19.80
2012,08,13,12,32,19.70
2012,08,13,12,33,19.70
2012,08,13,12,34,19.80
2012,08,13,12,35,19.70
2012,08,13,12,36,19.60
2012,08,13,12,37,19.40
2012,08,13,12,38,19.30
2012,08,13,12,39,19.20
2012,08,13,12,40,19.30
2012,08,13,12,41,19.30
2012,08,13,12,42,19.30
2012,08,13,12,43,19.40
2012,08,13,12,44,19.40
2012,08,13,12,45,19.40
2012,08,13,12,46,19.50
2012,08,13,12,47,19.50
2012,08,13,12,48,19.50
2012,08,13,12,49,19.50
2012,08,13,12,50,19.50
2012,08,13,12,51,19.50
2012,08,13,12,52,19.60
2012,08,13,12,53,19.60
2012,08,13,12,54,19.70
2012,08,13,12,55,19.80
2012,08,13,12,56,19.90
2012,08,13,12,57,20.00
2012,08,13,12,58,20.10
2012,08,13,12,59,20.20
2012,08,13,13,00,20.30
2012,08,13,13,01,20.30
2012,08,13,13,02,20.40
2012,08,13,13,03,20.40
2012,08,13,13,04,20.50
2012,08,13,13,05,20.50
2012,08,13,13,06,20.50
2012,08,13,13,07,20.60
2012,08,13,13,08,20.60
2012,08,13,13,09,20.50
2012,08,13,13,10,20.40
2012,08,13,13,11,20.40
2012,08,13,13,12,20.40
2012,08,13,13,13,20.40
2012,08,13,13,14,20.40
2012,08,13,13,15,20.40
2012,08,13,13,16,20.50
2012,08,13,13,17,20.40
2012,08,13,13,18,20.30
2012,08,13,13,19,20.40
2012,08,13,13,20,20.50
2012,08,13,13,21,20.50
2012,08,13,13,22,20.50
2012,08,13,13,23,20.60
2012,08,13,13,24,20.70
2012,08,13,13,25,20.70
2012,08,13,13,26,20.80
2012,08,13,13,27,20.90
2012,08,13,13,28,21.00
2012,08,13,13,29,21.00
2012,08,13,13,30,21.10
2012,08,13,13,31,21.20
2012,08,13,13,32,21.30
2012,08,13,13,33,21.50
2012,08,13,13,34,21.60
2012,08,13,13,35,21.70
2012,08,13,13,36,21.80
2012,08,13,13,37,21.90
2012,08,13,13,38,21.90
2012,08,13,13,39,22.00
2012,08,13,13,40,22.10
2012,08,13,13,41,22.10
2012,08,13,13,42,22.20
2012,08,13,13,43,22.30
2012,08,13,13,44,22.40
2012,08,13,13,45,22.30
2012,08,13,13,46,22.30
2012,08,13,13,47,22.30
2012,08,13,13,48,22.30
2012,08,13,13,49,22.30
2012,08,13,13,50,22.20
2012,08,13,13,51,22.20
2012,08,13,13,52,22.20
2012,08,13,13,53,22.30
2012,08,13,13,54,22.30
2012,08,13,13,55,22.40
2012,08,13,13,56,22.50
2012,08,13,13,57,22.60
2012,08,13,13,58,22.60
2012,08,13,13,59,22.70
2012,08,13,14,00,22.70
2012,08,13,14,01,22.80
2012,08,13,14,02,22.80
2012,08,13,14,03,22.90
2012,08,13,14,04,22.90
2012,08,13,14,05,22.90
2012,08,13,14,06,22.90
2012,08,13,14,07,22.90
2012,08,13,14,08,22.70
2012,08,13,14,09,22.60
2012,08,13,14,10,22.40
2012,08,13,14,11,22.20
2012,08,13,14,12,22.00
2012,08,13,14,13,21.90
2012,08,13,14,14,21.80
2012,08,13,14,15,21.80
2012,08,13,14,16,21.80
2012,08,13,14,17,21.80
2012,08,13,14,18,21.80
2012,08,13,14,19,21.90
2012,08,13,14,20,21.90
2012,08,13,14,21,22.00
2012,08,13,14,22,22.00
2012,08,13,14,23,22.00
2012,08,13,14,24,22.00
2012,08,13,14,25,22.00
2012,08,13,14,26,22.10
2012,08,13,14,27,22.10
2012,08,13,14,28,22.10
2012,08,13,14,29,22.20
2012,08,13,14,30,22.20
2012,08,13,14,31,22.30
2012,08,13,14,32,22.30
2012,08,13,14,33,22.40
2012,08,13,14,34,22.20
2012,08,13,14,35,22.20
2012,08,13,14,36,22.20
2012,08,13,14,37,22.20
2012,08,13,14,38,22.00
2012,08,13,14,39,21.90
2012,08,13,14,40,21.60
2012,08,13,14,41,21.30
2012,08,13,14,42,21.20
2012,08,13,14,43,21.10
2012,08,13,14,44,21.00
2012,08,13,14,45,21.00
2012,08,13,14,46,21.00
2012,08,13,14,47,21.00
2012,08,13,14,48,21.10
2012,08,13,14,49,21.20
2012,08,13,14,50,21.10
2012,08,13,14,51,21.10
2012,08,13,14,52,21.10
2012,08,13,14,53,21.20
2012,08,13,14,54,21.20
2012,08,13,14,55,21.20
2012,08,13,14,56,21.20
2012,08,13,14,57,21.20
2012,08,13,14,58,21.30
2012,08,13,14,59,21.30
2012,08,13,15,00,21.40
2012,08,13,15,01,21.60
2012,08,13,15,02,21.60
2012,08,13,15,03,21.60
2012,08,13,15,04,21.60
2012,08,13,15,05,21.60
2012,08,13,15,06,21.60
2012,08,13,15,07,21.60
2012,08,13,15,08,21.60
2012,08,13,15,09,21.80
2012,08,13,15,10,21.90
2012,08,13,15,11,21.80
2012,08,13,15,12,21.50
2012,08,13,15,13,21.30
2012,08,13,15,14,21.20
2012,08,13,15,15,21.10
2012,08,13,15,16,21.00
2012,08,13,15,17,21.00
2012,08,13,15,18,21.00
2012,08,13,15,19,21.00
2012,08,13,15,20,21.00
2012,08,13,15,21,21.10
2012,08,13,15,22,21.10
2012,08,13,15,23,21.20
2012,08,13,15,24,21.30
2012,08,13,15,25,21.30
2012,08,13,15,26,21.30
2012,08,13,15,27,21.30
2012,08,13,15,28,21.30
2012,08,13,15,29,21.40
2012,08,13,15,30,21.40
2012,08,13,15,31,21.40
2012,08,13,15,32,21.40
2012,08,13,15,33,21.40
2012,08,13,15,34,21.40
2012,08,13,15,35,21.40
2012,08,13,15,36,21.30
2012,08,13,15,37,21.10
2012,08,13,15,38,21.00
2012,08,13,15,39,21.00
2012,08,13,15,40,21.00
2012,08,13,15,41,20.90
2012,08,13,15,42,20.90
2012,08,13,15,43,20.90
2012,08,13,15,44,20.80
2012,08,13,15,45,20.70
2012,08,13,15,46,20.70
2012,08,13,15,47,20.60
2012,08,13,15,48,20.60
2012,08,13,15,49,20.50
2012,08,13,15,50,20.60
2012,08,13,15,51,20.60
2012,08,13,15,52,20.60
2012,08,13,15,53,20.60
2012,08,13,15,54,20.60
2012,08,13,15,55,20.50
2012,08,13,15,56,20.30
2012,08,13,15,57,20.20
2012,08,13,15,58,20.10
2012,08,13,15,59,20.10
2012,08,13,16,00,20.10
2012,08,13,16,01,20.00
2012,08,13,16,02,20.00
2012,08,13,16,03,20.10
2012,08,13,16,04,20.20
2012,08,13,16,05,20.30
2012,08,13,16,06,20.40
2012,08,13,16,07,20.50
2012,08,13,16,08,20.70
2012,08,13,16,09,20.90
2012,08,13,16,10,21.00
2012,08,13,16,11,21.00
2012,08,13,16,12,21.10
2012,08,13,16,13,21.10
2012,08,13,16,14,21.10
2012,08,13,16,15,21.00
2012,08,13,16,16,21.00
2012,08,13,16,17,20.90
2012,08,13,16,18,20.70
2012,08,13,16,19,20.60
2012,08,13,16,20,20.50
2012,08,13,16,21,20.30
2012,08,13,16,22,20.30
2012,08,13,16,23,20.10
2012,08,13,16,24,19.90
2012,08,13,16,25,19.50
2012,08,13,16,26,19.20
2012,08,13,16,27,18.90
2012,08,13,16,28,18.80
2012,08,13,16,29,18.70
2012,08,13,16,30,18.60
2012,08,13,16,31,18.60
2012,08,13,16,32,18.60
2012,08,13,16,33,18.60
2012,08,13,16,34,18.60
2012,08,13,16,35,18.60
2012,08,13,16,36,18.60
2012,08,13,16,37,18.70
2012,08,13,16,38,18.70
2012,08,13,16,39,18.70
2012,08,13,16,40,18.70
2012,08,13,16,41,18.80
2012,08,13,16,42,18.80
2012,08,13,16,43,18.80
2012,08,13,16,44,18.80
2012,08,13,16,45,18.70
2012,08,13,16,46,18.60
2012,08,13,16,47,18.60
2012,08,13,16,48,18.60
2012,08,13,16,49,18.70
2012,08,13,16,50,18.60
2012,08,13,16,51,18.60
2012,08,13,16,52,18.60
2012,08,13,16,53,18.50
2012,08,13,16,54,18.50
2012,08,13,16,55,18.40
2012,08,13,16,56,18.20
2012,08,13,16,57,18.20
2012,08,13,16,58,18.20
2012,08,13,16,59,18.10
2012,08,13,17,00,18.10
2012,08,13,17,01,18.10
2012,08,13,17,02,18.20
2012,08,13,17,03,18.20
2012,08,13,17,04,18.20
2012,08,13,17,05,18.10
2012,08,13,17,06,17.90
2012,08,13,17,07,17.80
2012,08,13,17,08,17.70
2012,08,13,17,09,17.60
2012,08,13,17,10,17.60
2012,08,13,17,11,17.60
2012,08,13,17,12,17.60
2012,08,13,17,13,17.60
2012,08,13,17,14,17.60
2012,08,13,17,15,17.70
2012,08,13,17,16,17.70
2012,08,13,17,17,17.70
2012,08,13,17,18,17.70
2012,08,13,17,19,17.80
2012,08,13,17,20,17.80
2012,08,13,17,21,17.90
2012,08,13,17,22,17.90
2012,08,13,17,23,17.90
2012,08,13,17,24,17.90
2012,08,13,17,25,17.90
2012,08,13,17,26,17.90
2012,08,13,17,27,17.90
2012,08,13,17,28,17.90
2012,08,13,17,29,17.90
2012,08,13,17,30,18.00
2012,08,13,17,31,18.10
2012,08,13,17,32,18.30
2012,08,13,17,33,18.50
2012,08,13,17,34,18.60
2012,08,13,17,35,18.60
2012,08,13,17,36,18.80
2012,08,13,17,37,18.90
2012,08,13,17,38,19.00
2012,08,13,17,39,19.10
2012,08,13,17,40,19.10
2012,08,13,17,41,19.10
2012,08,13,17,42,19.20
2012,08,13,17,43,19.30
2012,08,13,17,44,19.40
2012,08,13,17,45,19.50
2012,08,13,17,46,19.60
2012,08,13,17,47,19.80
2012,08,13,17,48,19.90
2012,08,13,17,49,20.10
2012,08,13,17,50,20.20
2012,08,13,17,51,20.40
2012,08,13,17,52,20.60
2012,08,13,17,53,20.70
2012,08,13,17,54,20.70
2012,08,13,17,55,20.80
2012,08,13,17,56,20.80
2012,08,13,17,57,20.90
2012,08,13,17,58,21.00
2012,08,13,17,59,21.00
2012,08,13,18,00,21.20
2012,08,13,18,01,21.30
2012,08,13,18,02,21.30
2012,08,13,18,03,21.40
2012,08,13,18,04,21.50
2012,08,13,18,05,21.60
2012,08,13,18,06,21.60
2012,08,13,18,07,21.60
2012,08,13,18,08,21.60
2012,08,13,18,09,21.70
2012,08,13,18,10,21.80
2012,08,13,18,11,21.80
2012,08,13,18,12,21.80
2012,08,13,18,13,21.80
2012,08,13,18,14,21.80
2012,08,13,18,15,21.90
2012,08,13,18,16,21.90
2012,08,13,18,17,21.90
2012,08,13,18,18,21.90
2012,08,13,18,19,21.90
2012,08,13,18,20,21.90
2012,08,13,18,21,21.90
2012,08,13,18,22,21.90
2012,08,13,18,23,22.00
2012,08,13,18,24,22.00
2012,08,13,18,25,22.00
2012,08,13,18,26,22.00
2012,08,13,18,27,22.00
2012,08,13,18,28,22.00
2012,08,13,18,29,22.00
2012,08,13,18,30,21.90
2012,08,13,18,31,21.70
2012,08,13,18,32,21.50
2012,08,13,18,33,21.30
2012,08,13,18,34,21.00
2012,08,13,18,35,20.80
2012,08,13,18,36,20.70
2012,08,13,18,37,20.50
2012,08,13,18,38,20.50
2012,08,13,18,39,20.30
2012,08,13,18,40,20.30
2012,08,13,18,41,20.20
2012,08,13,18,42,20.20
2012,08,13,18,43,20.30
2012,08,13,18,44,20.30
2012,08,13,18,45,20.40
2012,08,13,18,46,20.50
2012,08,13,18,47,20.60
2012,08,13,18,48,20.60
2012,08,13,18,49,20.70
2012,08,13,18,50,20.70
2012,08,13,18,51,20.70
2012,08,13,18,52,20.70
2012,08,13,18,53,20.70
2012,08,13,18,54,20.70
2012,08,13,18,55,20.80
2012,08,13,18,56,20.80
2012,08,13,18,57,20.80
2012,08,13,18,58,20.90
2012,08,13,18,59,20.90
2012,08,13,19,00,21.00
2012,08,13,19,01,21.00
2012,08,13,19,02,21.00
2012,08,13,19,03,21.00
2012,08,13,19,04,21.00
2012,08,13,19,05,21.00
2012,08,13,19,06,21.00